BTI274 EVRA-ESGG

Flight info

Callsign BTI274
Flight time 1h 5m
Altitude 38000
Route EVRA TENS2H TENSI L73 EVONA RISMA RISM3S ESGG
Aircraft A20N/M-SDE2E3FGHIRWXY/LB1

Departure

Time 2026-04-30 19:56
Airport Riga International Airport (EVRA)

Arrival

Time 2026-04-30 21:01
Airport Göteborg Landvetter Airport (ESGG)
Time Latitude Longitude Altitude Speed Heading
2026-04-30 19:46 56.91402 23.97442 41 ft 0 kts 272°
2026-04-30 19:53 56.91393 23.97388 41 ft 8 kts 230°
2026-04-30 19:53 56.91343 23.97351 41 ft 8 kts 188°
2026-04-30 19:53 56.91266 23.97332 41 ft 20 kts 187°
2026-04-30 19:53 56.91116 23.97304 41 ft 23 kts 186°
2026-04-30 19:54 56.90961 23.97231 42 ft 24 kts 211°
2026-04-30 19:54 56.90800 23.97159 42 ft 25 kts 185°
2026-04-30 19:54 56.90675 23.97112 40 ft 16 kts 214°
2026-04-30 19:54 56.90644 23.96965 42 ft 12 kts 264°
2026-04-30 19:55 56.90682 23.96851 40 ft 11 kts 332°
2026-04-30 19:55 56.90936 23.96869 40 ft 47 kts
2026-04-30 19:55 56.91580 23.96965 48 ft 146 kts
2026-04-30 19:55 56.92753 23.97188 636 ft 186 kts
2026-04-30 19:56 56.94136 23.97419 1466 ft 215 kts
2026-04-30 19:56 56.95762 23.97653 2242 ft 254 kts
2026-04-30 19:56 56.97566 23.97932 3585 ft 260 kts
2026-04-30 19:56 56.99317 23.98083 5465 ft 244 kts 358°
2026-04-30 19:57 57.00960 23.97547 7119 ft 242 kts 340°
2026-04-30 19:57 57.02414 23.95929 8410 ft 250 kts 325°
2026-04-30 19:57 57.03565 23.93449 9686 ft 264 kts 305°
2026-04-30 19:57 57.04114 23.90164 10791 ft 286 kts 285°
2026-04-30 19:58 57.04282 23.86374 11666 ft 307 kts 278°
2026-04-30 19:58 57.04344 23.82374 12777 ft 318 kts 277°
2026-04-30 19:58 57.04397 23.78273 13990 ft 324 kts 278°
2026-04-30 19:58 57.04458 23.74097 15070 ft 331 kts 278°
2026-04-30 19:59 57.04527 23.69824 16097 ft 339 kts 279°
2026-04-30 19:59 57.04602 23.65449 17118 ft 346 kts 279°
2026-04-30 19:59 57.04759 23.56405 19072 ft 360 kts 280°
2026-04-30 20:00 57.04837 23.51821 19968 ft 366 kts 280°
2026-04-30 20:00 57.04916 23.47106 20882 ft 372 kts 280°
2026-04-30 20:00 57.04994 23.42325 21795 ft 377 kts 280°
2026-04-30 20:00 57.05072 23.37481 22660 ft 382 kts 281°
2026-04-30 20:01 57.05226 23.27582 24264 ft 393 kts 281°
2026-04-30 20:01 57.05301 23.22540 24943 ft 398 kts 281°
2026-04-30 20:01 57.05375 23.17416 25618 ft 402 kts 281°
2026-04-30 20:02 57.05519 23.07029 26923 ft 410 kts 281°
2026-04-30 20:02 57.05590 23.01759 27484 ft 417 kts 281°
2026-04-30 20:03 57.05734 22.90865 28009 ft 441 kts 280°
2026-04-30 20:03 57.05806 22.85152 28258 ft 453 kts 279°
2026-04-30 20:03 57.05874 22.79287 28504 ft 464 kts 279°
2026-04-30 20:03 57.05941 22.73284 28744 ft 475 kts 279°
2026-04-30 20:04 57.06004 22.67153 29038 ft 483 kts 279°
2026-04-30 20:04 57.06062 22.61038 29609 ft 485 kts 279°
2026-04-30 20:04 57.06116 22.54845 30295 ft 484 kts 279°
2026-04-30 20:05 57.06219 22.42497 31488 ft 482 kts 279°
2026-04-30 20:05 57.06268 22.36335 32008 ft 481 kts 278°
2026-04-30 20:05 57.06526 22.24168 33241 ft 472 kts 282°
2026-04-30 20:06 57.06815 22.18221 33763 ft 471 kts 284°
2026-04-30 20:06 57.07150 22.12239 34273 ft 470 kts 284°
2026-04-30 20:06 57.07493 22.06262 34726 ft 470 kts 284°
2026-04-30 20:06 57.07828 22.00268 35105 ft 471 kts 284°
2026-04-30 20:07 57.08149 21.94278 35508 ft 471 kts 283°
2026-04-30 20:07 57.08457 21.88281 35948 ft 471 kts 283°
2026-04-30 20:07 57.09039 21.76362 36752 ft 469 kts 282°
2026-04-30 20:08 57.09321 21.70390 37270 ft 466 kts 282°
2026-04-30 20:08 57.09599 21.64443 37708 ft 465 kts 282°
2026-04-30 20:08 57.09875 21.58516 38090 ft 465 kts 282°
2026-04-30 20:08 57.10150 21.52566 38424 ft 464 kts 282°
2026-04-30 20:09 57.10421 21.46645 38407 ft 463 kts 282°
2026-04-30 20:09 57.11220 21.28893 38325 ft 465 kts 282°
2026-04-30 20:10 57.11989 21.11168 38320 ft 465 kts 281°
2026-04-30 20:11 57.12732 20.93431 38338 ft 463 kts 281°
2026-04-30 20:11 57.13217 20.81595 38339 ft 463 kts 281°
2026-04-30 20:12 57.13921 20.63848 38342 ft 463 kts 281°
2026-04-30 20:13 57.14378 20.51996 38315 ft 463 kts 280°
2026-04-30 20:13 57.14822 20.40187 38343 ft 462 kts 280°
2026-04-30 20:14 57.15256 20.28389 38348 ft 461 kts 280°
2026-04-30 20:14 57.15678 20.16644 38340 ft 462 kts 280°
2026-04-30 20:15 57.16091 20.04813 38347 ft 462 kts 280°
2026-04-30 20:15 57.16487 19.92992 38309 ft 462 kts 278°
2026-04-30 20:16 57.16695 19.81227 38347 ft 462 kts 277°
2026-04-30 20:16 57.16861 19.69407 38344 ft 461 kts 277°
2026-04-30 20:17 57.17022 19.57580 38342 ft 461 kts 277°
2026-04-30 20:17 57.17174 19.45759 38342 ft 461 kts 277°
2026-04-30 20:18 57.17315 19.33922 38343 ft 461 kts 277°
2026-04-30 20:18 57.17444 19.22113 38347 ft 459 kts 276°
2026-04-30 20:19 57.17562 19.10383 38345 ft 457 kts 276°
2026-04-30 20:19 57.17670 18.98730 38344 ft 457 kts 276°
2026-04-30 20:20 57.17766 18.87002 38345 ft 457 kts 276°
2026-04-30 20:20 57.17852 18.75305 38349 ft 457 kts 276°
2026-04-30 20:21 57.17926 18.63579 38344 ft 457 kts 276°
2026-04-30 20:21 57.17989 18.51888 38352 ft 455 kts 276°
2026-04-30 20:22 57.18042 18.40215 38353 ft 455 kts 276°
2026-04-30 20:22 57.18084 18.28562 38352 ft 455 kts 275°
2026-04-30 20:23 57.18115 18.16964 38350 ft 455 kts 275°
2026-04-30 20:23 57.18135 18.05290 38345 ft 455 kts 275°
2026-04-30 20:24 57.18145 17.93631 38355 ft 454 kts 275°
2026-04-30 20:24 57.18143 17.82005 38355 ft 453 kts 275°
2026-04-30 20:25 57.18121 17.64630 38355 ft 453 kts 275°
2026-04-30 20:26 57.18074 17.47193 38356 ft 453 kts 274°
2026-04-30 20:26 57.18004 17.29755 38352 ft 453 kts 274°
2026-04-30 20:27 57.17872 17.06482 38352 ft 454 kts 274°
2026-04-30 20:28 57.17697 16.83263 38352 ft 454 kts 274°
2026-04-30 20:30 57.17419 16.54285 38344 ft 452 kts 273°
2026-04-30 20:31 57.16997 16.19476 38325 ft 453 kts 272°
2026-04-30 20:32 57.16574 15.90601 38351 ft 451 kts 272°
2026-04-30 20:33 57.16288 15.73258 38351 ft 452 kts 272°
2026-04-30 20:34 57.15977 15.55891 38335 ft 452 kts 271°
2026-04-30 20:35 57.15643 15.38612 38352 ft 451 kts 271°
2026-04-30 20:35 57.15285 15.21265 38354 ft 452 kts 271°
2026-04-30 20:36 57.15033 15.09701 38355 ft 452 kts 271°
2026-04-30 20:37 57.14681 14.94297 38336 ft 452 kts 271°
2026-04-30 20:37 57.14403 14.82727 38369 ft 452 kts 271°
2026-04-30 20:37 57.14215 14.75100 38076 ft 450 kts 271°
2026-04-30 20:38 57.14069 14.69330 37803 ft 452 kts 270°
2026-04-30 20:38 57.13969 14.65420 37620 ft 453 kts 270°
2026-04-30 20:38 57.13819 14.59619 37350 ft 454 kts 270°
2026-04-30 20:39 57.13508 14.47983 36825 ft 455 kts 270°
2026-04-30 20:39 57.13348 14.42160 36567 ft 456 kts 270°
2026-04-30 20:39 57.13187 14.36388 36313 ft 457 kts 270°
2026-04-30 20:40 57.12852 14.24675 35791 ft 458 kts 270°
2026-04-30 20:40 57.12680 14.18813 35543 ft 459 kts 270°
2026-04-30 20:40 57.12506 14.12941 35295 ft 460 kts 270°
2026-04-30 20:41 57.12146 14.01147 34826 ft 462 kts 269°
2026-04-30 20:41 57.11962 13.95241 34583 ft 462 kts 269°
2026-04-30 20:41 57.11775 13.89334 34328 ft 463 kts 269°
2026-04-30 20:41 57.11585 13.83413 34069 ft 464 kts 269°
2026-04-30 20:42 57.11392 13.77482 33791 ft 465 kts 269°
2026-04-30 20:42 57.11198 13.71611 33505 ft 466 kts 269°
2026-04-30 20:42 57.10794 13.59670 32972 ft 469 kts 269°
2026-04-30 20:43 57.10587 13.53682 32716 ft 470 kts 269°
2026-04-30 20:43 57.10377 13.47656 32456 ft 471 kts 269°
2026-04-30 20:43 57.10163 13.41636 32197 ft 472 kts 269°
2026-04-30 20:44 57.10207 13.29629 30674 ft 468 kts 281°
2026-04-30 20:44 57.10911 13.23771 29213 ft 470 kts 291°
2026-04-30 20:44 57.13839 13.13155 26507 ft 469 kts 307°
2026-04-30 20:45 57.17496 13.03273 24427 ft 464 kts 307°
2026-04-30 20:45 57.19319 12.98357 23759 ft 466 kts 307°
2026-04-30 20:45 57.21140 12.93419 22908 ft 464 kts 307°
2026-04-30 20:46 57.26489 12.78797 21191 ft 452 kts 306°
2026-04-30 20:46 57.28237 12.73993 20830 ft 444 kts 306°
2026-04-30 20:47 57.31566 12.64806 19583 ft 419 kts 306°
2026-04-30 20:47 57.33169 12.60377 19006 ft 421 kts 306°
2026-04-30 20:48 57.36448 12.51290 17807 ft 426 kts 305°
2026-04-30 20:48 57.38097 12.46707 17227 ft 428 kts 305°
2026-04-30 20:48 57.39756 12.42087 16559 ft 428 kts 305°
2026-04-30 20:48 57.41396 12.37506 15366 ft 426 kts 304°
2026-04-30 20:49 57.43027 12.32951 14510 ft 418 kts 304°
2026-04-30 20:49 57.44586 12.28578 14262 ft 393 kts 304°
2026-04-30 20:49 57.46030 12.24517 14001 ft 371 kts 304°
2026-04-30 20:50 57.48740 12.16882 13430 ft 337 kts 304°
2026-04-30 20:50 57.50008 12.13303 12933 ft 329 kts 304°
2026-04-30 20:50 57.51262 12.09765 12336 ft 325 kts 304°
2026-04-30 20:50 57.52495 12.06279 11824 ft 320 kts 304°
2026-04-30 20:51 57.53866 12.03075 11355 ft 312 kts 317°
2026-04-30 20:51 57.57815 12.00792 10454 ft 303 kts
2026-04-30 20:51 57.59801 12.01876 10219 ft 293 kts 22°
2026-04-30 20:52 57.61615 12.03533 9765 ft 289 kts 26°
2026-04-30 20:52 57.63382 12.05283 9316 ft 286 kts 26°
2026-04-30 20:52 57.66889 12.08774 8526 ft 284 kts 26°
2026-04-30 20:53 57.68635 12.10499 8134 ft 283 kts 26°
2026-04-30 20:53 57.70372 12.12211 7741 ft 281 kts 26°
2026-04-30 20:53 57.72093 12.13907 7352 ft 279 kts 26°
2026-04-30 20:54 57.75506 12.17269 6560 ft 275 kts 26°
2026-04-30 20:54 57.77198 12.18938 6169 ft 274 kts 26°
2026-04-30 20:54 57.78876 12.20595 5780 ft 272 kts 26°
2026-04-30 20:55 57.82182 12.23864 5103 ft 266 kts 25°
2026-04-30 20:55 57.83791 12.25456 4725 ft 264 kts 25°
2026-04-30 20:55 57.85373 12.27154 4514 ft 258 kts 33°
2026-04-30 20:56 57.86914 12.32806 4161 ft 244 kts 82°
2026-04-30 20:56 57.86950 12.35929 4025 ft 235 kts 96°
2026-04-30 20:56 57.85396 12.40613 3755 ft 203 kts 151°
2026-04-30 20:57 57.84123 12.41430 3603 ft 187 kts 174°
2026-04-30 20:57 57.82858 12.41662 3261 ft 179 kts 180°
2026-04-30 20:57 57.81637 12.41593 3022 ft 172 kts 195°
2026-04-30 20:58 57.79464 12.39989 2970 ft 168 kts 210°
2026-04-30 20:58 57.78419 12.39061 2905 ft 165 kts 210°
2026-04-30 20:58 57.77392 12.38126 2699 ft 163 kts 211°
2026-04-30 20:58 57.76378 12.37198 2467 ft 160 kts 212°
2026-04-30 20:59 57.74468 12.35456 2049 ft 148 kts 213°
2026-04-30 20:59 57.73547 12.34610 1844 ft 147 kts 212°
2026-04-30 21:00 57.71754 12.32974 1451 ft 136 kts 211°
2026-04-30 21:00 57.70067 12.31430 1082 ft 135 kts 207°
2026-04-30 21:01 57.68425 12.29933 730 ft 125 kts 206°
2026-04-30 21:01 57.67648 12.29226 570 ft 123 kts 206°
2026-04-30 21:01 57.66533 12.28201 527 ft 45 kts 206°
2026-04-30 21:02 57.66211 12.27912 519 ft 56 kts 206°
2026-04-30 21:02 57.65894 12.27676 518 ft 42 kts 186°
2026-04-30 21:02 57.65734 12.27698 518 ft 11 kts 145°
2026-04-30 21:02 57.65734 12.27817 518 ft 11 kts 46°
2026-04-30 21:03 57.65802 12.27883 518 ft 12 kts 25°
2026-04-30 21:03 57.65879 12.27954 519 ft 13 kts 26°
2026-04-30 21:03 57.65967 12.28033 520 ft 15 kts 26°
2026-04-30 21:03 57.66116 12.28171 521 ft 32 kts 27°
2026-04-30 21:04 57.66326 12.28364 524 ft 34 kts 26°
2026-04-30 21:04 57.66504 12.28523 525 ft 23 kts 25°
2026-04-30 21:04 57.66796 12.28792 529 ft 17 kts 30°
2026-04-30 21:05 57.66814 12.28951 529 ft 12 kts 114°
2026-04-30 21:05 57.66774 12.29099 529 ft 12 kts 117°
2026-04-30 21:05 57.66779 12.29156 529 ft 9 kts 47°
2026-04-30 21:05 57.66802 12.29220 530 ft 9 kts 91°
2026-04-30 21:06 57.66781 12.29308 530 ft 7 kts 115°
2026-04-30 21:06 57.66778 12.29319 530 ft 0 kts 115°